Location: Boiro
(42.6475°N, 8.8834°W)
Time: 17:31:40
(UTC+01:00)

Explorer 11/Cluster Stage 4 - Pass Details

Date: 05 December 2021
Orbit: 467 x 1255 km, 28.8° (Epoch: 23 January)

Event Time Altitude Azimuth Distance (km) Brightness Sun altitude
Exits shadow 07:43:20 - 249° (WSW) 3,531 9.5 -12.0°
Reaches altitude 10° 07:45:28 10° 238° (WSW) 3,092 9.3 -11.6°
Maximum altitude 07:50:10 17° 201° (SSW) 2,669 9.3 -10.8°
Drops below altitude 10° 07:55:03 10° 164° (SSE) 3,218 10.3 -9.9°
Sets 07:59:09 0° 146° (SE) 4,175 11.3 -9.2°
